Location: Unspecified
(90.0000°S, 0.0000°E)
Time: 00:20:53
(UTC+00:00)

UKube-1 - Visible Passes

Search period start: 21 August 2019 00:00
Search period end: 31 August 2019 00:00
Orbit: 612 x 620 km, 98.4° (Epoch: 20 August)

Date Brightness Start Highest point End Pass type
(mag) Time Alt. Az. Time Alt. Az. Time Alt. Az.
21 Aug ? 01:20:07 10° SSW 01:24:00 29° SE 01:27:54 10° ENE visible
21 Aug ? 02:57:12 10° S 03:01:06 29° ESE 03:04:59 10° NE visible
21 Aug ? 04:34:17 10° SSE 04:38:12 29° E 04:42:05 10° NNE visible
21 Aug ? 06:11:23 10° SE 06:15:17 29° ENE 06:19:10 10° N visible
21 Aug ? 07:48:28 10° ESE 07:52:22 29° NE 07:56:15 10° NNW visible
21 Aug ? 09:25:34 10° ENE 09:29:27 29° NNE 09:33:21 10° NW visible
21 Aug ? 11:02:39 10° NE 11:06:33 29° N 11:10:25 10° WNW visible
21 Aug ? 12:39:44 10° NNE 12:43:38 29° NNW 12:47:31 10° W visible
21 Aug ? 14:16:49 10° N 14:20:43 29° NW 14:24:36 10° WSW visible
21 Aug ? 15:53:55 10° NNW 15:57:48 29° W 16:01:42 10° SW visible
21 Aug ? 17:31:00 10° NW 17:34:54 29° WSW 17:38:47 10° SSW visible
21 Aug ? 19:08:05 10° WNW 19:11:59 29° SW 19:15:52 10° S visible
21 Aug ? 20:45:11 10° W 20:49:04 29° SSW 20:52:57 10° SE visible
21 Aug ? 22:22:16 10° WSW 22:26:09 29° S 22:30:03 10° ESE visible
21 Aug ? 23:59:21 10° SW 00:03:15 29° SSE 00:07:09 10° E visible
22 Aug ? 01:36:27 10° SSW 01:40:20 29° SE 01:44:13 10° ENE visible
22 Aug ? 03:13:32 10° S 03:17:25 29° ESE 03:21:18 10° NE visible
22 Aug ? 04:50:37 10° SSE 04:54:31 29° E 04:58:24 10° NNE visible
22 Aug ? 06:27:42 10° ESE 06:31:36 29° ENE 06:35:29 10° N visible
22 Aug ? 08:04:48 10° E 08:08:42 29° NE 08:12:35 10° NNW visible
22 Aug ? 09:41:53 10° ENE 09:45:47 29° NNE 09:49:40 10° NW visible
22 Aug ? 11:18:59 10° NE 11:22:52 29° N 11:26:45 10° WNW visible
22 Aug ? 12:56:04 10° NNE 12:59:57 29° NW 13:03:51 10° W visible
22 Aug ? 14:33:09 10° N 14:37:03 29° WNW 14:40:55 10° WSW visible
22 Aug ? 16:10:14 10° NNW 16:14:08 29° W 16:18:01 10° SW visible
22 Aug ? 17:47:20 10° NW 17:51:13 29° WSW 17:55:06 10° S visible
22 Aug ? 19:24:25 10° WNW 19:28:18 29° SW 19:32:12 10° SSE visible
22 Aug ? 21:01:30 10° W 21:05:24 29° SSW 21:09:17 10° SE visible
22 Aug ? 22:38:35 10° WSW 22:42:29 29° S 22:46:22 10° ESE visible
23 Aug ? 00:15:41 10° SW 00:19:34 29° SSE 00:23:27 10° E visible
23 Aug ? 01:52:46 10° SSW 01:56:40 29° SE 02:00:32 10° ENE visible
23 Aug ? 03:29:51 10° SSE 03:33:45 29° ESE 03:37:38 10° NE visible
23 Aug ? 05:06:57 10° SE 05:10:50 29° E 05:14:43 10° NNE visible
23 Aug ? 06:44:02 10° ESE 06:47:56 29° ENE 06:51:49 10° N visible
23 Aug ? 08:21:07 10° E 08:25:01 29° NNE 08:28:54 10° NNW visible
23 Aug ? 09:58:13 10° ENE 10:02:06 29° N 10:05:59 10° NW visible
23 Aug ? 11:35:18 10° NE 11:39:12 29° NNW 11:43:04 10° WNW visible
23 Aug ? 13:12:23 10° NNE 13:16:17 29° NW 13:20:10 10° W visible
23 Aug ? 14:49:28 10° N 14:53:22 29° WNW 14:57:15 10° SW visible
23 Aug ? 16:26:34 10° NNW 16:30:27 29° W 16:34:20 10° SSW visible
23 Aug ? 18:03:39 10° NW 18:07:32 29° WSW 18:11:25 10° S visible
23 Aug ? 19:40:44 10° WNW 19:44:38 29° SW 19:48:31 10° SSE visible
23 Aug ? 21:17:49 10° W 21:21:43 29° SSW 21:25:36 10° SE visible
23 Aug ? 22:54:55 10° SW 22:58:48 29° S 23:02:42 10° ESE visible
24 Aug ? 00:32:00 10° SSW 00:35:54 29° SSE 00:39:47 10° E visible
24 Aug ? 02:09:06 10° S 02:12:59 29° SE 02:16:52 10° ENE visible
24 Aug ? 03:46:11 10° SSE 03:50:04 29° ESE 03:53:57 10° NE visible
24 Aug ? 05:23:16 10° SE 05:27:09 29° ENE 05:31:02 10° NNE visible
24 Aug ? 07:00:21 10° ESE 07:04:15 29° NE 07:08:08 10° N visible
24 Aug ? 08:37:27 10° E 08:41:20 29° NNE 08:45:13 10° NNW visible
24 Aug ? 10:14:32 10° ENE 10:18:25 29° N 10:22:18 10° NW visible
24 Aug ? 11:51:37 10° NE 11:55:31 29° NNW 11:59:24 10° W visible
24 Aug ? 13:28:43 10° NNE 13:32:36 29° NW 13:36:29 10° WSW visible
24 Aug ? 15:05:48 10° N 15:09:41 29° WNW 15:13:34 10° SW visible
24 Aug ? 16:42:53 10° NNW 16:46:47 29° W 16:50:39 10° SSW visible
24 Aug ? 18:19:58 10° NW 18:23:52 29° WSW 18:27:45 10° S visible
24 Aug ? 19:57:04 10° W 20:00:57 29° SW 20:04:50 10° SSE visible
24 Aug ? 21:34:09 10° WSW 21:38:03 29° SSW 21:41:55 10° SE visible
24 Aug ? 23:11:14 10° SW 23:15:08 29° S 23:19:01 10° ESE visible
25 Aug ? 00:48:20 10° SSW 00:52:13 29° SSE 00:56:06 10° E visible
25 Aug ? 02:25:25 10° S 02:29:19 29° ESE 02:33:11 10° ENE visible
25 Aug ? 04:02:30 10° SSE 04:06:24 29° E 04:10:17 10° NE visible
25 Aug ? 05:39:35 10° SE 05:43:29 29° ENE 05:47:22 10° NNE visible
25 Aug ? 07:16:41 10° ESE 07:20:34 29° NE 07:24:27 10° NNW visible
25 Aug ? 08:53:46 10° E 08:57:39 29° NNE 09:01:32 10° NW visible
25 Aug ? 10:30:51 10° ENE 10:34:45 29° N 10:38:38 10° WNW visible
25 Aug ? 12:07:56 10° NE 12:11:50 29° NNW 12:15:43 10° W visible
25 Aug ? 13:45:02 10° NNE 13:48:55 29° NW 13:52:49 10° WSW visible
25 Aug ? 15:22:07 10° N 15:26:01 29° WNW 15:29:54 10° SW visible
25 Aug ? 16:59:12 10° NW 17:03:06 29° W 17:06:59 10° SSW visible
25 Aug ? 18:36:18 10° WNW 18:40:11 29° WSW 18:44:04 10° S visible
25 Aug ? 20:13:23 10° W 20:17:16 29° SW 20:21:09 10° SSE visible
25 Aug ? 21:50:28 10° WSW 21:54:22 29° S 21:58:15 10° SE visible
25 Aug ? 23:27:34 10° SW 23:31:27 29° SSE 23:35:20 10° ESE visible
26 Aug ? 01:04:39 10° SSW 01:08:32 29° SE 01:12:25 10° E visible
26 Aug ? 02:41:45 10° S 02:45:38 29° ESE 02:49:31 10° ENE visible
26 Aug ? 04:18:50 10° SSE 04:22:43 29° E 04:26:36 10° NNE visible
26 Aug ? 05:55:55 10° SE 05:59:49 29° ENE 06:03:41 10° N visible
26 Aug ? 07:33:00 10° ESE 07:36:54 29° NE 07:40:46 10° NNW visible
26 Aug ? 09:10:05 10° E 09:13:58 29° NNE 09:17:51 10° NW visible
26 Aug ? 10:47:11 10° ENE 10:51:04 29° N 10:54:57 10° WNW visible
26 Aug ? 12:24:16 10° NE 12:28:10 29° NNW 12:32:02 10° W visible
26 Aug ? 14:01:22 10° N 14:05:15 29° NW 14:09:08 10° WSW visible
26 Aug ? 15:38:27 10° NNW 15:42:20 29° WNW 15:46:12 10° SW visible
26 Aug ? 17:15:32 10° NW 17:19:25 29° W 17:23:18 10° SSW visible
26 Aug ? 18:52:37 10° WNW 18:56:31 29° SW 19:00:23 10° S visible
26 Aug ? 20:29:42 10° W 20:33:36 29° SSW 20:37:29 10° SSE visible
26 Aug ? 22:06:48 10° WSW 22:10:41 29° S 22:14:34 10° SE visible
26 Aug ? 23:43:53 10° SW 23:47:47 29° SSE 23:51:39 10° ESE visible
27 Aug ? 01:20:59 10° SSW 01:24:52 29° SE 01:28:45 10° ENE visible
27 Aug ? 02:58:03 10° S 03:01:57 29° ESE 03:05:49 10° NE visible
27 Aug ? 04:35:09 10° SSE 04:39:02 29° E 04:42:55 10° NNE visible
27 Aug ? 06:12:14 10° SE 06:16:08 29° ENE 06:20:00 10° N visible
27 Aug ? 07:49:19 10° ESE 07:53:13 29° NE 07:57:05 10° NNW visible
27 Aug ? 09:26:25 10° ENE 09:30:18 29° NNE 09:34:11 10° NW visible
27 Aug ? 11:03:30 10° NE 11:07:23 29° N 11:11:16 10° WNW visible
27 Aug ? 12:40:35 10° NNE 12:44:29 29° NNW 12:48:21 10° W visible
27 Aug ? 14:17:41 10° N 14:21:34 29° NW 14:25:26 10° WSW visible
27 Aug ? 15:54:46 10° NNW 15:58:39 29° W 16:02:32 10° SW visible
27 Aug ? 17:31:51 10° NW 17:35:45 29° WSW 17:39:37 10° SSW visible
27 Aug ? 19:08:57 10° WNW 19:12:50 29° SW 19:16:42 10° S visible
27 Aug ? 20:46:02 10° W 20:49:55 29° SSW 20:53:48 10° SSE visible
27 Aug ? 22:23:07 10° WSW 22:27:00 29° S 22:30:53 10° ESE visible
28 Aug ? 00:00:12 10° SW 00:04:05 29° SSE 00:07:58 10° E visible
28 Aug ? 01:37:18 10° SSW 01:41:11 29° SE 01:45:04 10° ENE visible
28 Aug ? 03:14:23 10° S 03:18:16 29° ESE 03:22:09 10° NE visible
28 Aug ? 04:51:28 10° SSE 04:55:21 29° E 04:59:14 10° NNE visible
28 Aug ? 06:28:34 10° ESE 06:32:27 29° ENE 06:36:19 10° N visible
28 Aug ? 08:05:39 10° E 08:09:32 29° NE 08:13:25 10° NNW visible
28 Aug ? 09:42:44 10° ENE 09:46:37 29° NNE 09:50:30 10° NW visible
28 Aug ? 11:19:49 10° NE 11:23:42 29° N 11:27:36 10° WNW visible
28 Aug ? 12:56:55 10° NNE 13:00:48 29° NW 13:04:41 10° W visible
28 Aug ? 14:34:00 10° N 14:37:53 29° WNW 14:41:46 10° WSW visible
28 Aug ? 16:11:05 10° NNW 16:14:58 29° W 16:18:51 10° SW visible
28 Aug ? 17:48:11 10° NW 17:52:04 29° WSW 17:55:56 10° S visible
28 Aug ? 19:25:16 10° WNW 19:29:09 29° SW 19:33:02 10° SSE visible
28 Aug ? 21:02:21 10° W 21:06:15 29° SSW 21:10:07 10° SE visible
28 Aug ? 22:39:26 10° WSW 22:43:20 29° S 22:47:12 10° ESE visible
29 Aug ? 00:16:32 10° SW 00:20:25 29° SSE 00:24:18 10° E visible
29 Aug ? 01:53:37 10° SSW 01:57:30 29° SE 02:01:23 10° ENE visible
29 Aug ? 03:30:42 10° SSE 03:34:36 29° ESE 03:38:28 10° NE visible
29 Aug ? 05:07:48 10° SE 05:11:41 29° E 05:15:33 10° NNE visible
29 Aug ? 06:44:53 10° ESE 06:48:46 29° ENE 06:52:39 10° N visible
29 Aug ? 08:21:58 10° E 08:25:51 29° NNE 08:29:44 10° NNW visible
29 Aug ? 09:59:04 10° ENE 10:02:57 29° N 10:06:49 10° NW visible
29 Aug ? 11:36:09 10° NE 11:40:02 29° NNW 11:43:55 10° WNW visible
29 Aug ? 13:13:14 10° NNE 13:17:07 29° NW 13:20:59 10° W visible
29 Aug ? 14:50:19 10° N 14:54:13 29° WNW 14:58:05 10° SW visible
29 Aug ? 16:27:25 10° NNW 16:31:18 29° W 16:35:11 10° SSW visible
29 Aug ? 18:04:30 10° NW 18:08:23 29° WSW 18:12:16 10° S visible
29 Aug ? 19:41:35 10° WNW 19:45:28 29° SW 19:49:21 10° SSE visible
29 Aug ? 21:18:40 10° W 21:22:33 29° SSW 21:26:26 10° SE visible
29 Aug ? 22:55:46 10° WSW 22:59:39 29° S 23:03:31 10° ESE visible
30 Aug ? 00:32:51 10° SSW 00:36:44 29° SSE 00:40:36 10° E visible
30 Aug ? 02:09:57 10° S 02:13:49 29° SE 02:17:42 10° ENE visible
30 Aug ? 03:47:02 10° SSE 03:50:55 29° ESE 03:54:47 10° NE visible
30 Aug ? 05:24:07 10° SE 05:28:00 29° ENE 05:31:52 10° NNE visible
30 Aug ? 07:01:12 10° ESE 07:05:05 29° NE 07:08:58 10° N visible
30 Aug ? 08:38:17 10° E 08:42:10 29° NNE 08:46:03 10° NNW visible
30 Aug ? 10:15:23 10° ENE 10:19:16 29° N 10:23:08 10° NW visible
30 Aug ? 11:52:28 10° NE 11:56:21 29° NNW 12:00:14 10° W visible
30 Aug ? 13:29:33 10° NNE 13:33:26 29° NW 13:37:19 10° WSW visible
30 Aug ? 15:06:39 10° N 15:10:32 29° WNW 15:14:24 10° SW visible
30 Aug ? 16:43:44 10° NNW 16:47:37 29° W 16:51:29 10° SSW visible
30 Aug ? 18:20:49 10° NW 18:24:42 29° WSW 18:28:35 10° S visible
30 Aug ? 19:57:54 10° W 20:01:47 29° SW 20:05:40 10° SSE visible
30 Aug ? 21:35:00 10° WSW 21:38:52 29° SSW 21:42:46 10° SE visible
30 Aug ? 23:12:05 10° SW 23:15:58 29° S 23:19:51 10° ESE visible
